Deer Park, WA
on Saturday, November 3, 2012

Saturday
Previous Day Next Day
Daily Summary
 ActualAverageRecord
Temperature
Mean Temperature °F 38°F  
Max Temperature 50°F 48°F 58°F (2010)
Min Temperature 40°F 28°F 7°F (2002)
Degree Days
Heating Degree Days 20 27  
Month to date heating degree days 56 80  
Since 1 July heating degree days 968 1148  
Cooling Degree Days 0 0  
Month to date cooling degree days 0 0  
Year to date cooling degree days 232 187  
Moisture
Dew Point 46°F   
Average Humidity 93    
Maximum Humidity 100    
Minimum Humidity 86    
Precipitation
Precipitation 0.06 in 0.10 in 0.48 in (2005)
Month to date precipitation 0.15 0.30  
Year to date precipitation 20.15 16.36  
Wind
Wind Speed 3 mph   
Max Wind Speed 9 mph   
Max Gust Speed 22 mph   
Visibility 6 miles   
Events Rain   

Key: T is trace of precipitation, MM is missing value
Source: NWS Daily Summary
Time(PDT)TemperatureDew PointHumidity Pressure Visibility Wind DirectionWind SpeedGust SpeedPrecipitationEvents Conditions
12:53 AM 45.0°F 43.0°F 93% 30.08 in 10.0 miles NNE 5.8 mph - N/A   Overcast
1:53 AM 46.0°F 43.0°F 89% 30.07 in 10.0 miles NNE 6.9 mph - N/A   Overcast
2:53 AM 45.0°F 43.0°F 93% 30.07 in 10.0 miles NNE 4.6 mph - N/A   Overcast
3:53 AM 43.0°F 42.1°F 97% 30.07 in 10.0 miles Calm Calm - N/A   Scattered Clouds
4:53 AM 41.0°F 39.9°F 96% 30.07 in 9.0 miles Calm Calm - N/A   Mostly Cloudy
5:53 AM 42.1°F 41.0°F 96% 30.09 in 10.0 miles NNE 3.5 mph - N/A   Mostly Cloudy
6:53 AM 43.0°F 42.1°F 97% 30.09 in 10.0 miles North 3.5 mph - N/A   Overcast
7:53 AM 43.0°F 42.1°F 97% 30.09 in 10.0 miles Calm Calm - 0.00 in   Overcast
8:53 AM 44.1°F 43.0°F 96% 30.10 in 8.0 miles Calm Calm - N/A   Overcast
9:53 AM 45.0°F 44.1°F 97% 30.11 in 8.0 miles Calm Calm - 0.01 in   Overcast
10:44 AM 46.4°F 44.6°F 93% 30.08 in 4.0 miles Calm Calm - N/A   Overcast
10:53 AM 46.0°F 45.0°F 96% 30.11 in 2.0 miles SE 3.5 mph - N/A   Overcast
11:01 AM 46.4°F 44.6°F 93% 30.09 in 1.2 miles SE 3.5 mph - 0.01 in Rain Light Rain
11:29 AM 44.6°F 44.6°F 100% 30.09 in 1.5 miles Calm Calm - 0.02 in Rain Light Rain
11:41 AM 44.6°F 44.6°F 100% 30.09 in 2.0 miles SSE 3.5 mph - 0.02 in Rain Light Rain
11:53 AM 45.0°F 45.0°F 100% 30.12 in 3.0 miles SE 3.5 mph - 0.02 in Rain Light Rain
12:03 PM 44.6°F 44.6°F 100% 30.08 in 4.0 miles SE 3.5 mph - 0.01 in   Overcast
12:53 PM 46.0°F 45.0°F 96% 30.10 in 4.0 miles South 4.6 mph - 0.01 in Rain Light Rain
1:21 PM 46.4°F 44.6°F 93% 30.07 in 2.5 miles SSE 4.6 mph - 0.01 in Rain Light Rain
1:41 PM 46.4°F 46.4°F 100% 30.07 in 1.8 miles SE 4.6 mph - 0.01 in Rain Light Rain
1:53 PM 46.9°F 46.0°F 97% 30.09 in 1.8 miles SSE 4.6 mph - 0.01 in   Overcast
2:02 PM 46.4°F 46.4°F 100% 30.07 in 2.0 miles SSE 5.8 mph - N/A   Overcast
2:53 PM 46.9°F 46.9°F 100% 30.10 in 1.8 miles South 3.5 mph - N/A   Overcast
3:00 PM 48.2°F 46.4°F 93% 30.07 in 2.0 miles South 3.5 mph - N/A   Overcast
3:35 PM 48.2°F 48.2°F 100% 30.09 in 3.0 miles SSE 4.6 mph - N/A   Overcast
3:43 PM 48.2°F 48.2°F 100% 30.09 in 2.0 miles SSE 3.5 mph - N/A   Overcast
3:53 PM 48.0°F 48.0°F 100% 30.12 in 2.5 miles SSE 3.5 mph - N/A   Overcast
4:09 PM 48.2°F 48.2°F 100% 30.09 in 3.0 miles SSE 5.8 mph - N/A   Overcast
4:39 PM 48.2°F 48.2°F 100% 30.09 in 4.0 miles SSE 3.5 mph - N/A   Overcast
4:53 PM 48.9°F 48.0°F 97% 30.12 in 5.0 miles SE 4.6 mph - N/A   Overcast
5:53 PM 48.9°F 48.0°F 97% 30.14 in 6.0 miles Calm Calm - N/A   Overcast
6:30 PM 48.2°F 48.2°F 100% 30.11 in 7.0 miles SSE 4.6 mph - N/A   Overcast
6:53 PM 48.9°F 48.0°F 97% 30.14 in 7.0 miles SSE 3.5 mph - N/A   Overcast
7:53 PM 48.9°F 48.0°F 97% 30.14 in 9.0 miles SSE 4.6 mph - N/A   Overcast
8:53 PM 50.0°F 48.9°F 96% 30.14 in 10.0 miles SSE 5.8 mph - N/A   Overcast
9:21 PM 50.0°F 48.2°F 94% 30.13 in 10.0 miles South 5.8 mph - N/A   Overcast
9:53 PM 50.0°F 48.9°F 96% 30.16 in 8.0 miles South 5.8 mph - 0.00 in   Overcast
10:53 PM 50.0°F 48.9°F 96% 30.17 in 9.0 miles Calm Calm - 0.01 in   Overcast
11:53 PM 50.0°F 48.9°F 96% 30.18 in 10.0 miles South 6.9 mph - N/A   Overcast
Moon Phase
Nov. 03 Nov. 06 Nov. 13 Nov. 20 Nov. 28
Sunrise:07:38 AM (PDT) Moon Rise:09:05 PM (PDT)11/3
Sunset:05:27 PM (PDT) Moon Set:11:53 AM (PDT)11/3

Copyright © 2014 The Weather Underground, Inc.